COSMOS 249 DEB, 3755

Orbit data source: Space-Track

COSMOS 249 DEB, 3755 is space debris in LEO originally from a launch on Sun, 20 Oct 1968 UTC launched from the Tyuratam Missile And Space Complex (TTMTR). Debris objects in space refer to the collection of defunct objects orbiting the Earth. Examples of debris include non-operational satellites, rocket bodies, and fragments generated from explosions, collisions, or faulty payload assembly.

Loading next visibility...
Identifier
3755, 1968-091AT
Orbit
LEO
Country
Flag of CISCIS
Related business
Manufacturer
Unknown
Mission
Spacecraft
Bus & Motor
Unknown
Mass
Unknown
Launch date (UTC)
1968-10-20 (58 years ago)
Launch vehicle
Unknown
Launch site
Tyuratam Missile And Space Complex (TTMTR)
Object type
Payload
Rocket body
Debris
Shape & HBR
Unknown shape, 0.1 m
Radar Cross Section
Medium (>0.1 m² and <1 m²)

Expand to show TLE details & history
Last TLE update: 21 hours ago

TLE from 21 hours ago
0 COSMOS 249 DEB
1 03755U 68091AT  26207.98835720  .00001350  00000-0  16555-2 0  9996
2 03755  62.2433  49.0293 0778631 124.7342 242.9506 12.81708865648556
Epoch: 2026-07-26T23:43Z
TLE epoch observation values (Epoch: 2026-07-26T23:43:14.062Z)
Latitude
-0.00002°
Longitude
108.54231°
Altitude
1,644.484 km
Speed
6.908 km/s
True Right ascension
03h 16m 07s
True Declination
0° 00' 00"
Sunlit
Object was in daylight at epoch
Visualization orbit readout
Latitude
Unknown
Longitude
Unknown
Altitude
Unknown
Speed
Unknown
Apparent Right ascension
Unknown
Apparent Declination
Unknown
Sunlit
N/A
Visualization observer readout
Local Sidereal Time
09:37:50
Azimuth
Unknown
Elevation
Unknown
Doppler factor
Unknown
Orbital elements
Apogee altitude
1,934.065 km
Perigee altitude
733.145 km
Semi-major axis
7,711.742 km
Eccentricity
0.07786
Inclination
62.2433°
RAAN
49.0293°
Arg. of periapsis
124.7342°
True anomaly
235.36358°
Mean anomaly
242.9506°
Eccentric anomaly
239.12171°
Mean motion
3.2049 °/min
Orbital period
112.33 mins
BSTAR
0.0016555
Loading maneuver chart data...
Computing Atmospheric mass density...
Loading historical data...
Loading historical data...
Loading historical data...
Loading historical data...
Loading historical data...
Loading historical data...
Loading historical data...

Documentation

Showing up to 5 results
|